World > North America > United States > Texas

West Columbia, Texas Regional Weather

Lat: 29.14N, Lon: 95.65W
Wx Zone: TXZ237Web Search

Helpful Tip: Abbreviated, 7 Day, 14 Day Forecasts. There is a weather forecast for every taste.

Feedback


°F Click to change West Columbia hourly weather to Imperial units.Click to change West Columbia hourly weather to Metric units. °C
West Columbia Weather Map
UTC Time: 4/15/2021, 14:55
Your Time:

West Columbia, TX Regional Weather

Expires:202104151500;;593107
ASUS44 KSJT 151415
RWRSJT
WEST CENTRAL TEXAS REGIONAL WEATHER ROUNDUP
NATIONAL WEATHER SERVICE SAN ANGELO TX
900 AM CDT THU APR 15 2021

NOTE: "FAIR" INDICATES FEW OR NO CLOUDS BELOW 12,000 FEET WITH NO
SIGNIFICANT WEATHER AND/OR OBSTRUCTIONS TO VISIBILITY.


TXZ215-216-236-237-438-151500-
THE UPPER TEXAS COAST
  
CITY           SKY/WX    TMP DP  RH WIND       PRES   REMARKS
ORANGE         CLOUDY    63  59  87 NE9       29.98F                  
PORT ARTHUR    CLOUDY    62  60  93 NE12G22   29.96S                  
GALVESTON      CLOUDY    67  63  87 N23G29    29.95S FOG              
ANGLETON       CLOUDY    66  64  93 NE12      29.95R FOG              
BAY CITY       CLOUDY    67  66  98 NE12      29.94R                  
$$


SKY/WX - Weather  TMP - Temperature  DP - Dew Point  RH - Relative Humidity
WIND - Wind Direction/Speed PRES - Barometric Pressure VSB - Visibility
WCI - Wind Chill Index E13G22 Wind - East Wind 13 mph/Gusts of 22 mph